Voltar ao catálogo

SL-14 R/B

AtivoPO
NORAD 17912·ROCKET BODY·🇷🇺 Russia

Lançado Apr 27, 1987 de Plesetsk Cosmodrome

Loading…

Próximas Passagens (próximas 24 horas)

TLE

AtualizadoSource: Space-Track

Época: Sep 14, 2026, 22:05 UTC

1 17912U 87038B   26257.92019244  .00000248  00000-0  25936-4 0  9992
2 17912  82.4998 118.5563 0017694 258.4066 101.5164 14.85496178107323

Acompanhe SL-14 R/B em tempo real com AllMySat

Download on the App Store